Year,Month,Day,Hour,Minute,Value (Times are PST for temperature in C)
2009,12,08,00,00,-1.20
2009,12,08,00,01,-1.20
2009,12,08,00,02,-1.20
2009,12,08,00,03,-1.20
2009,12,08,00,04,-1.20
2009,12,08,00,05,-1.20
2009,12,08,00,06,-1.20
2009,12,08,00,07,-1.20
2009,12,08,00,08,-1.30
2009,12,08,00,09,-1.30
2009,12,08,00,10,-1.30
2009,12,08,00,11,-1.30
2009,12,08,00,12,-1.30
2009,12,08,00,13,-1.40
2009,12,08,00,14,-1.40
2009,12,08,00,15,-1.40
2009,12,08,00,16,-1.40
2009,12,08,00,17,-1.40
2009,12,08,00,18,-1.40
2009,12,08,00,19,-1.40
2009,12,08,00,20,-1.30
2009,12,08,00,21,-1.30
2009,12,08,00,22,-1.30
2009,12,08,00,23,-1.30
2009,12,08,00,24,-1.20
2009,12,08,00,25,-1.20
2009,12,08,00,26,-1.20
2009,12,08,00,27,-1.20
2009,12,08,00,28,-1.20
2009,12,08,00,29,-1.20
2009,12,08,00,30,-1.30
2009,12,08,00,31,-1.30
2009,12,08,00,32,-1.40
2009,12,08,00,33,-1.40
2009,12,08,00,34,-1.40
2009,12,08,00,35,-1.40
2009,12,08,00,36,-1.40
2009,12,08,00,37,-1.40
2009,12,08,00,38,-1.50
2009,12,08,00,39,-1.50
2009,12,08,00,40,-1.60
2009,12,08,00,41,-1.60
2009,12,08,00,42,-1.60
2009,12,08,00,43,-1.60
2009,12,08,00,44,-1.60
2009,12,08,00,45,-1.70
2009,12,08,00,46,-1.70
2009,12,08,00,47,-1.70
2009,12,08,00,48,-1.70
2009,12,08,00,49,-1.70
2009,12,08,00,50,-1.70
2009,12,08,00,51,-1.70
2009,12,08,00,52,-1.70
2009,12,08,00,53,-1.70
2009,12,08,00,54,-1.70
2009,12,08,00,55,-1.70
2009,12,08,00,56,-1.70
2009,12,08,00,57,-1.70
2009,12,08,00,58,-1.70
2009,12,08,00,59,-1.80
2009,12,08,01,00,-1.80
2009,12,08,01,01,-1.80
2009,12,08,01,02,-1.80
2009,12,08,01,03,-1.90
2009,12,08,01,04,-1.90
2009,12,08,01,05,-2.00
2009,12,08,01,06,-2.10
2009,12,08,01,07,-2.20
2009,12,08,01,08,-2.20
2009,12,08,01,09,-2.20
2009,12,08,01,10,-2.20
2009,12,08,01,11,-2.20
2009,12,08,01,12,-2.20
2009,12,08,01,13,-2.30
2009,12,08,01,14,-2.20
2009,12,08,01,15,-2.20
2009,12,08,01,16,-2.20
2009,12,08,01,17,-2.30
2009,12,08,01,18,-2.30
2009,12,08,01,19,-2.30
2009,12,08,01,20,-2.30
2009,12,08,01,21,-2.30
2009,12,08,01,22,-2.30
2009,12,08,01,23,-2.30
2009,12,08,01,24,-2.30
2009,12,08,01,25,-2.30
2009,12,08,01,26,-2.30
2009,12,08,01,27,-2.30
2009,12,08,01,28,-2.30
2009,12,08,01,29,-2.30
2009,12,08,01,30,-2.30
2009,12,08,01,31,-2.30
2009,12,08,01,32,-2.30
2009,12,08,01,33,-2.30
2009,12,08,01,34,-2.30
2009,12,08,01,35,-2.30
2009,12,08,01,36,-2.30
2009,12,08,01,37,-2.30
2009,12,08,01,38,-2.30
2009,12,08,01,39,-2.30
2009,12,08,01,40,-2.30
2009,12,08,01,41,-2.30
2009,12,08,01,42,-2.30
2009,12,08,01,43,-2.30
2009,12,08,01,44,-2.30
2009,12,08,01,45,-2.30
2009,12,08,01,46,-2.30
2009,12,08,01,47,-2.20
2009,12,08,01,48,-2.20
2009,12,08,01,49,-2.20
2009,12,08,01,50,-2.10
2009,12,08,01,51,-2.00
2009,12,08,01,52,-2.00
2009,12,08,01,53,-2.00
2009,12,08,01,54,-2.00
2009,12,08,01,55,-1.90
2009,12,08,01,56,-2.00
2009,12,08,01,57,-1.90
2009,12,08,01,58,-1.90
2009,12,08,01,59,-1.90
2009,12,08,02,00,-1.90
2009,12,08,02,01,-1.90
2009,12,08,02,02,-1.90
2009,12,08,02,03,-1.90
2009,12,08,02,04,-1.90
2009,12,08,02,05,-1.90
2009,12,08,02,06,-2.00
2009,12,08,02,07,-2.00
2009,12,08,02,08,-2.00
2009,12,08,02,09,-2.00
2009,12,08,02,10,-2.00
2009,12,08,02,11,-2.00
2009,12,08,02,12,-2.00
2009,12,08,02,13,-2.00
2009,12,08,02,14,-2.00
2009,12,08,02,15,-2.10
2009,12,08,02,16,-2.10
2009,12,08,02,17,-2.20
2009,12,08,02,18,-2.20
2009,12,08,02,19,-2.30
2009,12,08,02,20,-2.30
2009,12,08,02,21,-2.30
2009,12,08,02,22,-2.30
2009,12,08,02,23,-2.40
2009,12,08,02,24,-2.50
2009,12,08,02,25,-2.60
2009,12,08,02,26,-2.70
2009,12,08,02,27,-2.80
2009,12,08,02,28,-2.80
2009,12,08,02,29,-2.80
2009,12,08,02,30,-2.80
2009,12,08,02,31,-2.80
2009,12,08,02,32,-2.80
2009,12,08,02,33,-2.80
2009,12,08,02,34,-2.90
2009,12,08,02,35,-2.90
2009,12,08,02,36,-2.80
2009,12,08,02,37,-2.90
2009,12,08,02,38,-2.80
2009,12,08,02,39,-2.80
2009,12,08,02,40,-2.90
2009,12,08,02,41,-2.90
2009,12,08,02,42,-2.80
2009,12,08,02,43,-2.80
2009,12,08,02,44,-2.80
2009,12,08,02,45,-2.80
2009,12,08,02,46,-2.80
2009,12,08,02,47,-2.90
2009,12,08,02,48,-2.80
2009,12,08,02,49,-2.80
2009,12,08,02,50,-2.80
2009,12,08,02,51,-2.80
2009,12,08,02,52,-2.80
2009,12,08,02,53,-2.80
2009,12,08,02,54,-2.80
2009,12,08,02,55,-2.80
2009,12,08,02,56,-2.80
2009,12,08,02,57,-2.80
2009,12,08,02,58,-2.90
2009,12,08,02,59,-3.00
2009,12,08,03,00,-3.00
2009,12,08,03,01,-2.90
2009,12,08,03,02,-2.90
2009,12,08,03,03,-2.90
2009,12,08,03,04,-2.90
2009,12,08,03,05,-2.80
2009,12,08,03,06,-2.80
2009,12,08,03,07,-2.90
2009,12,08,03,08,-2.90
2009,12,08,03,09,-2.80
2009,12,08,03,10,-2.70
2009,12,08,03,11,-2.70
2009,12,08,03,12,-2.60
2009,12,08,03,13,-2.60
2009,12,08,03,14,-2.60
2009,12,08,03,15,-2.50
2009,12,08,03,16,-2.50
2009,12,08,03,17,-2.40
2009,12,08,03,18,-2.40
2009,12,08,03,19,-2.40
2009,12,08,03,20,-2.50
2009,12,08,03,21,-2.50
2009,12,08,03,22,-2.50
2009,12,08,03,23,-2.50
2009,12,08,03,24,-2.50
2009,12,08,03,25,-2.50
2009,12,08,03,26,-2.60
2009,12,08,03,27,-2.50
2009,12,08,03,28,-2.50
2009,12,08,03,29,-2.50
2009,12,08,03,30,-2.50
2009,12,08,03,31,-2.50
2009,12,08,03,32,-2.50
2009,12,08,03,33,-2.40
2009,12,08,03,34,-2.30
2009,12,08,03,35,-2.30
2009,12,08,03,36,-2.30
2009,12,08,03,37,-2.20
2009,12,08,03,38,-2.20
2009,12,08,03,39,-2.20
2009,12,08,03,40,-2.10
2009,12,08,03,41,-2.10
2009,12,08,03,42,-2.10
2009,12,08,03,43,-2.20
2009,12,08,03,44,-2.30
2009,12,08,03,45,-2.30
2009,12,08,03,46,-2.40
2009,12,08,03,47,-2.40
2009,12,08,03,48,-2.30
2009,12,08,03,49,-2.30
2009,12,08,03,50,-2.30
2009,12,08,03,51,-2.30
2009,12,08,03,52,-2.40
2009,12,08,03,53,-2.40
2009,12,08,03,54,-2.40
2009,12,08,03,55,-2.40
2009,12,08,03,56,-2.40
2009,12,08,03,57,-2.40
2009,12,08,03,58,-2.40
2009,12,08,03,59,-2.40
2009,12,08,04,00,-2.40
2009,12,08,04,01,-2.40
2009,12,08,04,02,-2.50
2009,12,08,04,03,-2.50
2009,12,08,04,04,-2.40
2009,12,08,04,05,-2.40
2009,12,08,04,06,-2.40
2009,12,08,04,07,-2.40
2009,12,08,04,08,-2.40
2009,12,08,04,09,-2.40
2009,12,08,04,10,-2.30
2009,12,08,04,11,-2.30
2009,12,08,04,12,-2.30
2009,12,08,04,13,-2.30
2009,12,08,04,14,-2.40
2009,12,08,04,15,-2.40
2009,12,08,04,16,-2.40
2009,12,08,04,17,-2.50
2009,12,08,04,18,-2.60
2009,12,08,04,19,-2.60
2009,12,08,04,20,-2.70
2009,12,08,04,21,-2.70
2009,12,08,04,22,-2.70
2009,12,08,04,23,-2.80
2009,12,08,04,24,-2.70
2009,12,08,04,25,-2.70
2009,12,08,04,26,-2.60
2009,12,08,04,27,-2.50
2009,12,08,04,28,-2.50
2009,12,08,04,29,-2.40
2009,12,08,04,30,-2.40
2009,12,08,04,31,-2.30
2009,12,08,04,32,-2.30
2009,12,08,04,33,-2.30
2009,12,08,04,34,-2.30
2009,12,08,04,35,-2.30
2009,12,08,04,36,-2.30
2009,12,08,04,37,-2.30
2009,12,08,04,38,-2.30
2009,12,08,04,39,-2.40
2009,12,08,04,40,-2.40
2009,12,08,04,41,-2.50
2009,12,08,04,42,-2.50
2009,12,08,04,43,-2.50
2009,12,08,04,44,-2.50
2009,12,08,04,45,-2.60
2009,12,08,04,46,-2.60
2009,12,08,04,47,-2.60
2009,12,08,04,48,-2.60
2009,12,08,04,49,-2.50
2009,12,08,04,50,-2.50
2009,12,08,04,51,-2.50
2009,12,08,04,52,-2.50
2009,12,08,04,53,-2.50
2009,12,08,04,54,-2.50
2009,12,08,04,55,-2.50
2009,12,08,04,56,-2.50
2009,12,08,04,57,-2.50
2009,12,08,04,58,-2.60
2009,12,08,04,59,-2.60
2009,12,08,05,00,-2.60
2009,12,08,05,01,-2.60
2009,12,08,05,02,-2.70
2009,12,08,05,03,-2.70
2009,12,08,05,04,-2.60
2009,12,08,05,05,-2.60
2009,12,08,05,06,-2.60
2009,12,08,05,07,-2.60
2009,12,08,05,08,-2.60
2009,12,08,05,09,-2.50
2009,12,08,05,10,-2.50
2009,12,08,05,11,-2.40
2009,12,08,05,12,-2.40
2009,12,08,05,13,-2.30
2009,12,08,05,14,-2.30
2009,12,08,05,15,-2.30
2009,12,08,05,16,-2.30
2009,12,08,05,17,-2.30
2009,12,08,05,18,-2.30
2009,12,08,05,19,-2.30
2009,12,08,05,20,-2.30
2009,12,08,05,21,-2.30
2009,12,08,05,22,-2.30
2009,12,08,05,23,-2.30
2009,12,08,05,24,-2.30
2009,12,08,05,25,-2.30
2009,12,08,05,26,-2.30
2009,12,08,05,27,-2.30
2009,12,08,05,28,-2.30
2009,12,08,05,29,-2.30
2009,12,08,05,30,-2.30
2009,12,08,05,31,-2.30
2009,12,08,05,32,-2.30
2009,12,08,05,33,-2.30
2009,12,08,05,34,-2.30
2009,12,08,05,35,-2.30
2009,12,08,05,36,-2.30
2009,12,08,05,37,-2.30
2009,12,08,05,38,-2.30
2009,12,08,05,39,-2.30
2009,12,08,05,40,-2.30
2009,12,08,05,41,-2.30
2009,12,08,05,42,-2.30
2009,12,08,05,43,-2.30
2009,12,08,05,44,-2.30
2009,12,08,05,45,-2.30
2009,12,08,05,46,-2.30
2009,12,08,05,47,-2.30
2009,12,08,05,48,-2.30
2009,12,08,05,49,-2.30
2009,12,08,05,50,-2.30
2009,12,08,05,51,-2.30
2009,12,08,05,52,-2.30
2009,12,08,05,53,-2.30
2009,12,08,05,54,-2.30
2009,12,08,05,55,-2.30
2009,12,08,05,56,-2.30
2009,12,08,05,57,-2.30
2009,12,08,05,58,-2.30
2009,12,08,05,59,-2.30
2009,12,08,06,00,-2.30
2009,12,08,06,01,-2.30
2009,12,08,06,02,-2.30
2009,12,08,06,03,-2.30
2009,12,08,06,04,-2.30
2009,12,08,06,05,-2.30
2009,12,08,06,06,-2.30
2009,12,08,06,07,-2.30
2009,12,08,06,08,-2.30
2009,12,08,06,09,-2.30
2009,12,08,06,10,-2.30
2009,12,08,06,11,-2.30
2009,12,08,06,12,-2.30
2009,12,08,06,13,-2.30
2009,12,08,06,14,-2.30
2009,12,08,06,15,-2.30
2009,12,08,06,16,-2.30
2009,12,08,06,17,-2.30
2009,12,08,06,18,-2.30
2009,12,08,06,19,-2.30
2009,12,08,06,20,-2.30
2009,12,08,06,21,-2.30
2009,12,08,06,22,-2.30
2009,12,08,06,23,-2.30
2009,12,08,06,24,-2.30
2009,12,08,06,25,-2.30
2009,12,08,06,26,-2.30
2009,12,08,06,27,-2.30
2009,12,08,06,28,-2.30
2009,12,08,06,29,-2.30
2009,12,08,06,30,-2.30
2009,12,08,06,31,-2.30
2009,12,08,06,32,-2.40
2009,12,08,06,33,-2.40
2009,12,08,06,34,-2.40
2009,12,08,06,35,-2.40
2009,12,08,06,36,-2.40
2009,12,08,06,37,-2.40
2009,12,08,06,38,-2.40
2009,12,08,06,39,-2.40
2009,12,08,06,40,-2.40
2009,12,08,06,41,-2.40
2009,12,08,06,42,-2.40
2009,12,08,06,43,-2.40
2009,12,08,06,44,-2.40
2009,12,08,06,45,-2.30
2009,12,08,06,46,-2.30
2009,12,08,06,47,-2.30
2009,12,08,06,48,-2.30
2009,12,08,06,49,-2.30
2009,12,08,06,50,-2.30
2009,12,08,06,51,-2.20
2009,12,08,06,52,-2.20
2009,12,08,06,53,-2.20
2009,12,08,06,54,-2.20
2009,12,08,06,55,-2.20
2009,12,08,06,56,-2.20
2009,12,08,06,57,-2.30
2009,12,08,06,58,-2.30
2009,12,08,06,59,-2.30
2009,12,08,07,00,-2.20
2009,12,08,07,01,-2.20
2009,12,08,07,02,-2.20
2009,12,08,07,03,-2.20
2009,12,08,07,04,-2.20
2009,12,08,07,05,-2.20
2009,12,08,07,06,-2.20
2009,12,08,07,07,-2.10
2009,12,08,07,08,-2.10
2009,12,08,07,09,-2.10
2009,12,08,07,10,-2.10
2009,12,08,07,11,-2.10
2009,12,08,07,12,-2.10
2009,12,08,07,13,-2.10
2009,12,08,07,14,-2.10
2009,12,08,07,15,-2.20
2009,12,08,07,16,-2.20
2009,12,08,07,17,-2.20
2009,12,08,07,18,-2.20
2009,12,08,07,19,-2.20
2009,12,08,07,20,-2.20
2009,12,08,07,21,-2.20
2009,12,08,07,22,-2.20
2009,12,08,07,23,-2.20
2009,12,08,07,24,-2.20
2009,12,08,07,25,-2.20
2009,12,08,07,26,-2.20
2009,12,08,07,27,-2.20
2009,12,08,07,28,-2.20
2009,12,08,07,29,-2.20
2009,12,08,07,30,-2.20
2009,12,08,07,31,-2.20
2009,12,08,07,32,-2.30
2009,12,08,07,33,-2.30
2009,12,08,07,34,-2.30
2009,12,08,07,35,-2.40
2009,12,08,07,36,-2.40
2009,12,08,07,37,-2.50
2009,12,08,07,38,-2.50
2009,12,08,07,39,-2.60
2009,12,08,07,40,-2.70
2009,12,08,07,41,-2.70
2009,12,08,07,42,-2.70
2009,12,08,07,43,-2.80
2009,12,08,07,44,-2.80
2009,12,08,07,45,-2.80
2009,12,08,07,46,-2.70
2009,12,08,07,47,-2.70
2009,12,08,07,48,-2.70
2009,12,08,07,49,-2.70
2009,12,08,07,50,-2.70
2009,12,08,07,51,-2.70
2009,12,08,07,52,-2.70
2009,12,08,07,53,-2.80
2009,12,08,07,54,-2.80
2009,12,08,07,55,-2.90
2009,12,08,07,56,-3.00
2009,12,08,07,57,-3.00
2009,12,08,07,58,-3.10
2009,12,08,07,59,-3.30
2009,12,08,08,00,-3.40
2009,12,08,08,01,-3.50
2009,12,08,08,02,-3.50
2009,12,08,08,03,-3.60
2009,12,08,08,04,-3.60
2009,12,08,08,05,-3.70
2009,12,08,08,06,-3.70
2009,12,08,08,07,-3.70
2009,12,08,08,08,-3.70
2009,12,08,08,09,-3.70
2009,12,08,08,10,-3.70
2009,12,08,08,11,-3.80
2009,12,08,08,12,-3.80
2009,12,08,08,13,-3.80
2009,12,08,08,14,-3.80
2009,12,08,08,15,-3.80
2009,12,08,08,16,-3.70
2009,12,08,08,17,-3.70
2009,12,08,08,18,-3.70
2009,12,08,08,19,-3.70
2009,12,08,08,20,-3.60
2009,12,08,08,21,-3.50
2009,12,08,08,22,-3.50
2009,12,08,08,23,-3.40
2009,12,08,08,24,-3.30
2009,12,08,08,25,-3.30
2009,12,08,08,26,-3.20
2009,12,08,08,27,-3.10
2009,12,08,08,28,-3.00
2009,12,08,08,29,-3.00
2009,12,08,08,30,-2.90
2009,12,08,08,31,-2.80
2009,12,08,08,32,-2.80
2009,12,08,08,33,-2.80
2009,12,08,08,34,-2.80
2009,12,08,08,35,-2.80
2009,12,08,08,36,-2.80
2009,12,08,08,37,-2.80
2009,12,08,08,38,-2.70
2009,12,08,08,39,-2.70
2009,12,08,08,40,-2.70
2009,12,08,08,41,-2.70
2009,12,08,08,42,-2.60
2009,12,08,08,43,-2.60
2009,12,08,08,44,-2.60
2009,12,08,08,45,-2.60
2009,12,08,08,46,-2.60
2009,12,08,08,47,-2.60
2009,12,08,08,48,-2.60
2009,12,08,08,49,-2.60
2009,12,08,08,50,-2.60
2009,12,08,08,51,-2.60
2009,12,08,08,52,-2.60
2009,12,08,08,53,-2.60
2009,12,08,08,54,-2.60
2009,12,08,08,55,-2.60
2009,12,08,08,56,-2.70
2009,12,08,08,57,-2.70
2009,12,08,08,58,-2.70
2009,12,08,08,59,-2.80
2009,12,08,09,00,-2.80
2009,12,08,09,01,-2.80
2009,12,08,09,02,-2.80
2009,12,08,09,03,-2.70
2009,12,08,09,04,-2.70
2009,12,08,09,05,-2.70
2009,12,08,09,06,-2.70
2009,12,08,09,07,-2.70
2009,12,08,09,08,-2.60
2009,12,08,09,09,-2.60
2009,12,08,09,10,-2.60
2009,12,08,09,11,-2.60
2009,12,08,09,12,-2.60
2009,12,08,09,13,-2.50
2009,12,08,09,14,-2.50
2009,12,08,09,15,-2.50
2009,12,08,09,16,-2.40
2009,12,08,09,17,-2.50
2009,12,08,09,18,-2.50
2009,12,08,09,19,-2.50
2009,12,08,09,20,-2.50
2009,12,08,09,21,-2.60
2009,12,08,09,22,-2.60
2009,12,08,09,23,-2.60
2009,12,08,09,24,-2.50
2009,12,08,09,25,-2.50
2009,12,08,09,26,-2.50
2009,12,08,09,27,-2.50
2009,12,08,09,28,-2.40
2009,12,08,09,29,-2.40
2009,12,08,09,30,-2.30
2009,12,08,09,31,-2.30
2009,12,08,09,32,-2.20
2009,12,08,09,33,-2.20
2009,12,08,09,34,-2.10
2009,12,08,09,35,-2.10
2009,12,08,09,36,-2.00
2009,12,08,09,37,-2.00
2009,12,08,09,38,-2.00
2009,12,08,09,39,-1.90
2009,12,08,09,40,-1.80
2009,12,08,09,41,-1.80
2009,12,08,09,42,-1.70
2009,12,08,09,43,-1.60
2009,12,08,09,44,-1.60
2009,12,08,09,45,-1.50
2009,12,08,09,46,-1.50
2009,12,08,09,47,-1.50
2009,12,08,09,48,-1.50
2009,12,08,09,49,-1.50
2009,12,08,09,50,-1.50
2009,12,08,09,51,-1.50
2009,12,08,09,52,-1.50
2009,12,08,09,53,-1.50
2009,12,08,09,54,-1.60
2009,12,08,09,55,-1.60
2009,12,08,09,56,-1.60
2009,12,08,09,57,-1.60
2009,12,08,09,58,-1.60
2009,12,08,09,59,-1.50
2009,12,08,10,00,-1.50
2009,12,08,10,01,-1.50
2009,12,08,10,02,-1.40
2009,12,08,10,03,-1.30
2009,12,08,10,04,-1.20
2009,12,08,10,05,-1.10
2009,12,08,10,06,-1.10
2009,12,08,10,07,-1.00
2009,12,08,10,08,-0.90
2009,12,08,10,09,-0.80
2009,12,08,10,10,-0.80
2009,12,08,10,11,-0.80
2009,12,08,10,12,-0.80
2009,12,08,10,13,-0.80
2009,12,08,10,14,-0.70
2009,12,08,10,15,-0.70
2009,12,08,10,16,-0.70
2009,12,08,10,17,-0.70
2009,12,08,10,18,-0.60
2009,12,08,10,19,-0.60
2009,12,08,10,20,-0.40
2009,12,08,10,21,-0.40
2009,12,08,10,22,-0.30
2009,12,08,10,23,-0.20
2009,12,08,10,24,-0.10
2009,12,08,10,25,-0.10
2009,12,08,10,26,-0.10
2009,12,08,10,27,0.00
2009,12,08,10,28,0.10
2009,12,08,10,29,0.10
2009,12,08,10,30,0.10
2009,12,08,10,31,0.10
2009,12,08,10,32,0.10
2009,12,08,10,33,0.10
2009,12,08,10,34,0.20
2009,12,08,10,35,0.20
2009,12,08,10,36,0.40
2009,12,08,10,37,0.50
2009,12,08,10,38,0.60
2009,12,08,10,39,0.70
2009,12,08,10,40,0.70
2009,12,08,10,41,0.80
2009,12,08,10,42,0.80
2009,12,08,10,43,0.80
2009,12,08,10,44,0.80
2009,12,08,10,45,0.80
2009,12,08,10,46,0.80
2009,12,08,10,47,0.80
2009,12,08,10,48,0.80
2009,12,08,10,49,0.80
2009,12,08,10,50,0.80
2009,12,08,10,51,0.80
2009,12,08,10,52,0.80
2009,12,08,10,53,0.80
2009,12,08,10,54,0.80
2009,12,08,10,55,0.90
2009,12,08,10,56,0.90
2009,12,08,10,57,0.90
2009,12,08,10,58,0.80
2009,12,08,10,59,0.80
2009,12,08,11,00,0.80
2009,12,08,11,01,0.80
2009,12,08,11,02,0.80
2009,12,08,11,03,0.90
2009,12,08,11,04,0.90
2009,12,08,11,05,1.00
2009,12,08,11,06,1.00
2009,12,08,11,07,1.00
2009,12,08,11,08,1.10
2009,12,08,11,09,1.00
2009,12,08,11,10,1.00
2009,12,08,11,11,1.00
2009,12,08,11,12,1.00
2009,12,08,11,13,1.00
2009,12,08,11,14,1.00
2009,12,08,11,15,1.00
2009,12,08,11,16,0.90
2009,12,08,11,17,0.90
2009,12,08,11,18,0.80
2009,12,08,11,19,0.80
2009,12,08,11,20,0.80
2009,12,08,11,21,0.80
2009,12,08,11,22,0.80
2009,12,08,11,23,0.90
2009,12,08,11,24,1.00
2009,12,08,11,25,1.00
2009,12,08,11,26,1.10
2009,12,08,11,27,1.10
2009,12,08,11,28,1.20
2009,12,08,11,29,1.20
2009,12,08,11,30,1.20
2009,12,08,11,31,1.20
2009,12,08,11,32,1.10
2009,12,08,11,33,1.00
2009,12,08,11,34,1.00
2009,12,08,11,35,1.00
2009,12,08,11,36,1.00
2009,12,08,11,37,1.10
2009,12,08,11,38,1.10
2009,12,08,11,39,1.10
2009,12,08,11,40,1.20
2009,12,08,11,41,1.20
2009,12,08,11,42,1.20
2009,12,08,11,43,1.20
2009,12,08,11,44,1.10
2009,12,08,11,45,1.00
2009,12,08,11,46,0.90
2009,12,08,11,47,0.90
2009,12,08,11,48,0.90
2009,12,08,11,49,1.00
2009,12,08,11,50,1.00
2009,12,08,11,51,1.00
2009,12,08,11,52,1.10
2009,12,08,11,53,1.10
2009,12,08,11,54,1.10
2009,12,08,11,55,1.10
2009,12,08,11,56,1.10
2009,12,08,11,57,1.00
2009,12,08,11,58,1.10
2009,12,08,11,59,1.10
2009,12,08,12,00,1.20
2009,12,08,12,01,1.30
2009,12,08,12,02,1.20
2009,12,08,12,03,1.20
2009,12,08,12,04,1.20
2009,12,08,12,05,1.10
2009,12,08,12,06,1.10
2009,12,08,12,07,1.10
2009,12,08,12,08,1.20
2009,12,08,12,09,1.20
2009,12,08,12,10,1.30
2009,12,08,12,11,1.30
2009,12,08,12,12,1.30
2009,12,08,12,13,1.40
2009,12,08,12,14,1.40
2009,12,08,12,15,1.40
2009,12,08,12,16,1.40
2009,12,08,12,17,1.50
2009,12,08,12,18,1.50
2009,12,08,12,19,1.40
2009,12,08,12,20,1.30
2009,12,08,12,21,1.20
2009,12,08,12,22,1.20
2009,12,08,12,23,1.20
2009,12,08,12,24,1.30
2009,12,08,12,25,1.30
2009,12,08,12,26,1.40
2009,12,08,12,27,1.40
2009,12,08,12,28,1.40
2009,12,08,12,29,1.30
2009,12,08,12,30,1.10
2009,12,08,12,31,0.90
2009,12,08,12,32,0.90
2009,12,08,12,33,1.00
2009,12,08,12,34,1.00
2009,12,08,12,35,1.10
2009,12,08,12,36,1.20
2009,12,08,12,37,1.20
2009,12,08,12,38,1.20
2009,12,08,12,39,1.10
2009,12,08,12,40,1.10
2009,12,08,12,41,1.10
2009,12,08,12,42,1.10
2009,12,08,12,43,1.20
2009,12,08,12,44,1.10
2009,12,08,12,45,1.10
2009,12,08,12,46,1.10
2009,12,08,12,47,1.20
2009,12,08,12,48,1.30
2009,12,08,12,49,1.30
2009,12,08,12,50,1.30
2009,12,08,12,51,1.30
2009,12,08,12,52,1.20
2009,12,08,12,53,1.20
2009,12,08,12,54,1.20
2009,12,08,12,55,1.20
2009,12,08,12,56,1.20
2009,12,08,12,57,1.30
2009,12,08,12,58,1.30
2009,12,08,12,59,1.30
2009,12,08,13,00,1.40
2009,12,08,13,01,1.50
2009,12,08,13,02,1.50
2009,12,08,13,03,1.50
2009,12,08,13,04,1.50
2009,12,08,13,05,1.50
2009,12,08,13,06,1.60
2009,12,08,13,07,1.60
2009,12,08,13,08,1.60
2009,12,08,13,09,1.60
2009,12,08,13,10,1.60
2009,12,08,13,11,1.60
2009,12,08,13,12,1.60
2009,12,08,13,13,1.60
2009,12,08,13,14,1.60
2009,12,08,13,15,1.50
2009,12,08,13,16,1.50
2009,12,08,13,17,1.50
2009,12,08,13,18,1.50
2009,12,08,13,19,1.60
2009,12,08,13,20,1.60
2009,12,08,13,21,1.70
2009,12,08,13,22,1.80
2009,12,08,13,23,1.80
2009,12,08,13,24,1.80
2009,12,08,13,25,1.80
2009,12,08,13,26,1.70
2009,12,08,13,27,1.60
2009,12,08,13,28,1.60
2009,12,08,13,29,1.60
2009,12,08,13,30,1.60
2009,12,08,13,31,1.60
2009,12,08,13,32,1.60
2009,12,08,13,33,1.60
2009,12,08,13,34,1.60
2009,12,08,13,35,1.60
2009,12,08,13,36,1.60
2009,12,08,13,37,1.50
2009,12,08,13,38,1.50
2009,12,08,13,39,1.40
2009,12,08,13,40,1.50
2009,12,08,13,41,1.50
2009,12,08,13,42,1.60
2009,12,08,13,43,1.60
2009,12,08,13,44,1.60
2009,12,08,13,45,1.50
2009,12,08,13,46,1.50
2009,12,08,13,47,1.40
2009,12,08,13,48,1.50
2009,12,08,13,49,1.50
2009,12,08,13,50,1.60
2009,12,08,13,51,1.60
2009,12,08,13,52,1.60
2009,12,08,13,53,1.60
2009,12,08,13,54,1.60
2009,12,08,13,55,1.60
2009,12,08,13,56,1.60
2009,12,08,13,57,1.60
2009,12,08,13,58,1.60
2009,12,08,13,59,1.60
2009,12,08,14,00,1.60
2009,12,08,14,01,1.60
2009,12,08,14,02,1.60
2009,12,08,14,03,1.70
2009,12,08,14,04,1.80
2009,12,08,14,05,1.80
2009,12,08,14,06,1.80
2009,12,08,14,07,1.80
2009,12,08,14,08,1.80
2009,12,08,14,09,1.80
2009,12,08,14,10,1.80
2009,12,08,14,11,1.80
2009,12,08,14,12,1.70
2009,12,08,14,13,1.70
2009,12,08,14,14,1.70
2009,12,08,14,15,1.70
2009,12,08,14,16,1.70
2009,12,08,14,17,1.70
2009,12,08,14,18,1.70
2009,12,08,14,19,1.60
2009,12,08,14,20,1.60
2009,12,08,14,21,1.50
2009,12,08,14,22,1.50
2009,12,08,14,23,1.50
2009,12,08,14,24,1.60
2009,12,08,14,25,1.60
2009,12,08,14,26,1.50
2009,12,08,14,27,1.50
2009,12,08,14,28,1.60
2009,12,08,14,29,1.60
2009,12,08,14,30,1.70
2009,12,08,14,31,1.70
2009,12,08,14,32,1.70
2009,12,08,14,33,1.70
2009,12,08,14,34,1.70
2009,12,08,14,35,1.60
2009,12,08,14,36,1.60
2009,12,08,14,37,1.70
2009,12,08,14,38,1.70
2009,12,08,14,39,1.60
2009,12,08,14,40,1.60
2009,12,08,14,41,1.60
2009,12,08,14,42,1.60
2009,12,08,14,43,1.60
2009,12,08,14,44,1.60
2009,12,08,14,45,1.60
2009,12,08,14,46,1.50
2009,12,08,14,47,1.50
2009,12,08,14,48,1.50
2009,12,08,14,49,1.50
2009,12,08,14,50,1.40
2009,12,08,14,51,1.30
2009,12,08,14,52,1.20
2009,12,08,14,53,1.20
2009,12,08,14,54,1.10
2009,12,08,14,55,1.20
2009,12,08,14,56,1.30
2009,12,08,14,57,1.30
2009,12,08,14,58,1.30
2009,12,08,14,59,1.30
2009,12,08,15,00,1.20
2009,12,08,15,01,1.10
2009,12,08,15,02,1.00
2009,12,08,15,03,0.90
2009,12,08,15,04,0.80
2009,12,08,15,05,0.80
2009,12,08,15,06,0.80
2009,12,08,15,07,0.80
2009,12,08,15,08,0.80
2009,12,08,15,09,0.80
2009,12,08,15,10,0.80
2009,12,08,15,11,0.80
2009,12,08,15,12,0.80
2009,12,08,15,13,0.80
2009,12,08,15,14,0.80
2009,12,08,15,15,0.80
2009,12,08,15,16,0.80
2009,12,08,15,17,0.80
2009,12,08,15,18,0.90
2009,12,08,15,19,1.00
2009,12,08,15,20,1.00
2009,12,08,15,21,1.10
2009,12,08,15,22,1.10
2009,12,08,15,23,1.10
2009,12,08,15,24,1.20
2009,12,08,15,25,1.20
2009,12,08,15,26,1.10
2009,12,08,15,27,1.10
2009,12,08,15,28,1.00
2009,12,08,15,29,1.00
2009,12,08,15,30,0.90
2009,12,08,15,31,0.90
2009,12,08,15,32,0.90
2009,12,08,15,33,0.90
2009,12,08,15,34,0.90
2009,12,08,15,35,0.80
2009,12,08,15,36,0.90
2009,12,08,15,37,0.90
2009,12,08,15,38,0.80
2009,12,08,15,39,0.80
2009,12,08,15,40,0.80
2009,12,08,15,41,0.80
2009,12,08,15,42,0.80
2009,12,08,15,43,0.80
2009,12,08,15,44,0.80
2009,12,08,15,45,0.80
2009,12,08,15,46,0.80
2009,12,08,15,47,0.70
2009,12,08,15,48,0.70
2009,12,08,15,49,0.70
2009,12,08,15,50,0.70
2009,12,08,15,51,0.80
2009,12,08,15,52,0.80
2009,12,08,15,53,0.80
2009,12,08,15,54,0.80
2009,12,08,15,55,0.70
2009,12,08,15,57,0.60
2009,12,08,15,58,0.60
2009,12,08,15,59,0.50
2009,12,08,16,00,0.50
2009,12,08,16,01,0.40
2009,12,08,16,02,0.40
2009,12,08,16,03,0.40
2009,12,08,16,04,0.40
2009,12,08,16,05,0.40
2009,12,08,16,06,0.40
2009,12,08,16,07,0.40
2009,12,08,16,08,0.20
2009,12,08,16,09,0.20
2009,12,08,16,10,0.10
2009,12,08,16,11,0.10
2009,12,08,16,12,0.10
2009,12,08,16,13,0.10
2009,12,08,16,14,0.00
2009,12,08,16,15,-0.10
2009,12,08,16,16,-0.10
2009,12,08,16,17,-0.10
2009,12,08,16,18,-0.10
2009,12,08,16,19,-0.10
2009,12,08,16,20,-0.20
2009,12,08,16,21,-0.20
2009,12,08,16,22,-0.20
2009,12,08,16,23,-0.30
2009,12,08,16,24,-0.30
2009,12,08,16,25,-0.40
2009,12,08,16,26,-0.40
2009,12,08,16,27,-0.40
2009,12,08,16,28,-0.40
2009,12,08,16,29,-0.40
2009,12,08,16,30,-0.40
2009,12,08,16,31,-0.40
2009,12,08,16,32,-0.40
2009,12,08,16,33,-0.40
2009,12,08,16,34,-0.40
2009,12,08,16,35,-0.50
2009,12,08,16,36,-0.60
2009,12,08,16,37,-0.60
2009,12,08,16,38,-0.60
2009,12,08,16,39,-0.60
2009,12,08,16,40,-0.60
2009,12,08,16,41,-0.60
2009,12,08,16,42,-0.60
2009,12,08,16,43,-0.60
2009,12,08,16,44,-0.60
2009,12,08,16,45,-0.70
2009,12,08,16,46,-0.70
2009,12,08,16,47,-0.70
2009,12,08,16,48,-0.70
2009,12,08,16,49,-0.70
2009,12,08,16,50,-0.80
2009,12,08,16,51,-0.80
2009,12,08,16,52,-0.80
2009,12,08,16,53,-0.80
2009,12,08,16,54,-0.80
2009,12,08,16,55,-0.80
2009,12,08,16,56,-0.70
2009,12,08,16,57,-0.70
2009,12,08,16,58,-0.70
2009,12,08,16,59,-0.80
2009,12,08,17,00,-0.80
2009,12,08,17,01,-0.70
2009,12,08,17,02,-0.70
2009,12,08,17,03,-0.70
2009,12,08,17,04,-0.70
2009,12,08,17,05,-0.80
2009,12,08,17,06,-0.80
2009,12,08,17,07,-0.80
2009,12,08,17,08,-0.80
2009,12,08,17,09,-0.80
2009,12,08,17,10,-0.80
2009,12,08,17,11,-0.80
2009,12,08,17,12,-0.80
2009,12,08,17,13,-0.80
2009,12,08,17,14,-0.70
2009,12,08,17,15,-0.70
2009,12,08,17,16,-0.80
2009,12,08,17,17,-0.80
2009,12,08,17,18,-0.80
2009,12,08,17,19,-0.80
2009,12,08,17,20,-0.80
2009,12,08,17,21,-0.80
2009,12,08,17,22,-0.90
2009,12,08,17,23,-0.90
2009,12,08,17,24,-0.90
2009,12,08,17,25,-0.90
2009,12,08,17,26,-0.90
2009,12,08,17,27,-0.90
2009,12,08,17,28,-0.90
2009,12,08,17,29,-0.90
2009,12,08,17,30,-0.90
2009,12,08,17,31,-0.90
2009,12,08,17,32,-0.90
2009,12,08,17,33,-0.90
2009,12,08,17,34,-0.90
2009,12,08,17,35,-0.90